Location: Gerlach
(40.6516°N, 119.3568°W)
Time: 15:21:15
(UTC-07:00)

A-11 Canister half - Pass Details

Date: 28 February 2024
Orbit: 1525 x 1683 km, 47.3° (Epoch: 21 April)

Event Time Altitude Azimuth Distance (km) Brightness Sun altitude
Rises 19:02:52 0° 223° (SW) 4,815 12.2 -15.1°
Reaches altitude 10° 19:06:02 10° 220° (SW) 3,810 11.6 -15.7°
Maximum altitude 19:15:30 62° 142° (SE) 1,724 9.0 -17.5°
Enters shadow 19:22:04 21° 69° (ENE) 2,921 9.9 -18.7°
